• In Belgium
  • List of Countries
  • For 7 days
  • Water Temperature
  • Satellite Maps
  • Weather Map
  • Weather Widgets
  • user-avatar
    Login

    Hourly Weather Osmancık

    Today, 22 October, Monday

    Time Temperature Precipitation Wind Pressure Humidity
    00:00 +15°C° 0 mm 1 mps 723 mmHg 89%
    01:00 +15°C° 0 mm 1 mps 723 mmHg 90%
    02:00 +15°C° 0 mm 1 mps 723 mmHg 91%
    03:00 +14°C° 0 mm 1 mps 723 mmHg 91%
    04:00 +14°C° 0 mm 1 mps 723 mmHg 91%
    05:00 +14°C° 0 mm 1 mps 724 mmHg 91%
    06:00 +15°C° 0 mm 1 mps 724 mmHg 87%
    07:00 +15°C° 0 mm 1 mps 724 mmHg 82%
    08:00 +16°C° 0 mm 1 mps 725 mmHg 78%
    09:00 +18°C° 0 mm 1 mps 725 mmHg 72%
    10:00 +20°C° 0 mm 1 mps 725 mmHg 65%
    11:00 +19°C° 0 mm 0 mps 725 mmHg 59%
    12:00 +21°C° 0.1 mm 1 mps 724 mmHg 57%
    13:00 +21°C° 0.1 mm 1 mps 724 mmHg 55%
    14:00 +22°C° 0.1 mm 1 mps 724 mmHg 54%
    15:00 +21°C° 0 mm 1 mps 724 mmHg 58%
    16:00 +20°C° 0 mm 1 mps 724 mmHg 63%
    17:00 +19°C° 0 mm 1 mps 724 mmHg 68%
    18:00 +18°C° 0 mm 1 mps 724 mmHg 73%
    19:00 +18°C° 0 mm 1 mps 724 mmHg 77%
    20:00 +16°C° 0 mm 1 mps 724 mmHg 82%
    21:00 +16°C° 0 mm 1 mps 724 mmHg 84%
    22:00 +15°C° 0 mm 1 mps 724 mmHg 86%
    23:00 +15°C° 0 mm 1 mps 724 mmHg 89%

    Tomorrow, 23 October, Tuesday

    Time Temperature Precipitation Wind Pressure Humidity
    00:00 +15°C° 0 mm 1 mps 724 mmHg 90%
    01:00 +13°C° 0 mm 0 mps 724 mmHg 90%
    02:00 +13°C° 0 mm 0 mps 724 mmHg 91%
    03:00 +13°C° 0 mm 0 mps 723 mmHg 91%
    04:00 +13°C° 0 mm 0 mps 723 mmHg 91%
    05:00 +13°C° 0 mm 0 mps 723 mmHg 91%
    06:00 +14°C° 0 mm 0 mps 723 mmHg 86%
    07:00 +15°C° 0 mm 0 mps 723 mmHg 82%
    08:00 +16°C° 0 mm 0 mps 724 mmHg 77%
    09:00 +17°C° 0 mm 0 mps 724 mmHg 68%
    10:00 +19°C° 0 mm 0 mps 723 mmHg 60%
    11:00 +20°C° 0 mm 0 mps 723 mmHg 52%
    12:00 +23°C° 0 mm 1 mps 723 mmHg 50%
    13:00 +23°C° 0 mm 1 mps 722 mmHg 49%
    14:00 +23°C° 0 mm 1 mps 722 mmHg 47%
    15:00 +22°C° 0 mm 1 mps 722 mmHg 52%
    16:00 +21°C° 0 mm 1 mps 721 mmHg 57%
    17:00 +20°C° 0 mm 1 mps 721 mmHg 63%
    18:00 +19°C° 0 mm 1 mps 721 mmHg 68%
    19:00 +18°C° 0 mm 1 mps 721 mmHg 73%
    20:00 +18°C° 0 mm 1 mps 721 mmHg 78%
    21:00 +16°C° 0 mm 1 mps 721 mmHg 81%
    22:00 +16°C° 0 mm 1 mps 720 mmHg 84%
    23:00 +15°C° 0 mm 1 mps 720 mmHg 86%

    Day after tomorrow, 24 October, Wednesday

    Time Temperature Precipitation Wind Pressure Humidity
    00:00 +15°C° 0 mm 1 mps 720 mmHg 87%
    01:00 +15°C° 0 mm 1 mps 719 mmHg 88%
    02:00 +15°C° 0 mm 1 mps 719 mmHg 88%
    03:00 +15°C° 0 mm 1 mps 719 mmHg 88%
    04:00 +15°C° 0 mm 1 mps 718 mmHg 87%
    05:00 +14°C° 0 mm 1 mps 718 mmHg 86%
    06:00 +16°C° 0 mm 1 mps 718 mmHg 80%
    07:00 +18°C° 0 mm 1 mps 717 mmHg 74%
    08:00 +18°C° 0 mm 2 mps 717 mmHg 68%
    09:00 +19°C° 0 mm 2 mps 717 mmHg 60%
    10:00 +21°C° 0 mm 3 mps 716 mmHg 52%
    11:00 +23°C° 0 mm 4 mps 716 mmHg 44%
    12:00 +23°C° 0.1 mm 4 mps 715 mmHg 44%
    13:00 +23°C° 0.1 mm 5 mps 715 mmHg 43%
    14:00 +23°C° 0.1 mm 5 mps 714 mmHg 43%
    15:00 +22°C° 0.2 mm 4 mps 714 mmHg 48%
    16:00 +21°C° 0.2 mm 3 mps 713 mmHg 53%
    17:00 +20°C° 0.2 mm 3 mps 713 mmHg 58%
    18:00 +19°C° 0.4 mm 2 mps 713 mmHg 62%
    19:00 +18°C° 0.4 mm 2 mps 713 mmHg 66%
    20:00 +19°C° 0.4 mm 1 mps 713 mmHg 70%
    21:00 +18°C° 0.5 mm 1 mps 713 mmHg 72%
    22:00 +17°C° 0.5 mm 2 mps 712 mmHg 74%
    23:00 +17°C° 0.5 mm 2 mps 712 mmHg 77%

    25 October, Thursday

    Time Temperature Precipitation Wind Pressure Humidity
    00:00 +16°C° 0.5 mm 2 mps 712 mmHg 78%
    01:00 +15°C° 0.5 mm 2 mps 711 mmHg 79%
    02:00 +15°C° 0.5 mm 2 mps 711 mmHg 80%
    03:00 +15°C° 0.1 mm 2 mps 711 mmHg 78%
    04:00 +14°C° 0.1 mm 2 mps 711 mmHg 77%
    05:00 +14°C° 0.1 mm 2 mps 711 mmHg 75%
    06:00 +13°C° 0.3 mm 3 mps 712 mmHg 73%
    07:00 +12°C° 0.3 mm 3 mps 713 mmHg 71%
    08:00 +12°C° 0.3 mm 3 mps 714 mmHg 70%
    09:00 +12°C° 0.5 mm 3 mps 714 mmHg 68%
    10:00 +12°C° 0.5 mm 3 mps 714 mmHg 66%
    11:00 +11°C° 0.5 mm 4 mps 715 mmHg 64%
    12:00 +11°C° 0.7 mm 4 mps 715 mmHg 64%
    13:00 +11°C° 0.7 mm 3 mps 715 mmHg 63%
    14:00 +10°C° 0.7 mm 3 mps 716 mmHg 63%
    15:00 +10°C° 0.5 mm 3 mps 716 mmHg 64%
    16:00 +9°C° 0.5 mm 3 mps 717 mmHg 65%
    17:00 +9°C° 0.5 mm 3 mps 718 mmHg 67%
    18:00 +8°C° 0.2 mm 3 mps 719 mmHg 67%
    19:00 +8°C° 0.2 mm 3 mps 719 mmHg 67%
    20:00 +8°C° 0.2 mm 3 mps 720 mmHg 67%
    21:00 +7°C° 0 mm 2 mps 721 mmHg 68%
    22:00 +7°C° 0 mm 2 mps 721 mmHg 70%
    23:00 +6°C° 0 mm 2 mps 721 mmHg 71%

    26 October, Friday

    Time Temperature Precipitation Wind Pressure Humidity
    00:00 +6°C° 0 mm 2 mps 721 mmHg 72%
    01:00 +6°C° 0 mm 2 mps 722 mmHg 73%
    02:00 +5°C° 0 mm 2 mps 722 mmHg 74%
    03:00 +5°C° 0 mm 2 mps 722 mmHg 75%
    04:00 +5°C° 0 mm 2 mps 723 mmHg 76%
    05:00 +5°C° 0 mm 2 mps 723 mmHg 76%
    06:00 +6°C° 0 mm 2 mps 724 mmHg 73%
    07:00 +7°C° 0 mm 2 mps 724 mmHg 69%
    08:00 +7°C° 0 mm 2 mps 725 mmHg 66%
    09:00 +8°C° 0 mm 2 mps 725 mmHg 61%
    10:00 +9°C° 0 mm 2 mps 725 mmHg 57%
    11:00 +10°C° 0 mm 2 mps 725 mmHg 52%
    12:00 +12°C° 0 mm 2 mps 725 mmHg 50%
    13:00 +12°C° 0 mm 2 mps 725 mmHg 47%
    14:00 +13°C° 0 mm 2 mps 725 mmHg 45%
    15:00 +12°C° 0 mm 2 mps 726 mmHg 48%
    16:00 +11°C° 0 mm 1 mps 726 mmHg 52%
    17:00 +9°C° 0 mm 0 mps 726 mmHg 56%
    18:00 +10°C° 0 mm 1 mps 727 mmHg 57%
    19:00 +9°C° 0 mm 1 mps 727 mmHg 58%
    20:00 +9°C° 0 mm 1 mps 728 mmHg 59%
    21:00 +9°C° 0 mm 1 mps 728 mmHg 59%
    22:00 +9°C° 0 mm 1 mps 728 mmHg 60%
    23:00 +8°C° 0 mm 1 mps 728 mmHg 60%

    27 October, Saturday

    Time Temperature Precipitation Wind Pressure Humidity
    00:00 +8°C° 0 mm 1 mps 728 mmHg 61%
    01:00 +8°C° 0 mm 1 mps 728 mmHg 61%
    02:00 +8°C° 0 mm 1 mps 728 mmHg 62%
    03:00 +8°C° 0 mm 1 mps 729 mmHg 62%
    04:00 +6°C° 0 mm 2 mps 729 mmHg 63%
    05:00 +6°C° 0 mm 2 mps 729 mmHg 64%
    06:00 +7°C° 0 mm 2 mps 729 mmHg 60%
    07:00 +9°C° 0 mm 2 mps 729 mmHg 57%
    08:00 +10°C° 0 mm 2 mps 729 mmHg 53%
    09:00 +13°C° 0 mm 2 mps 729 mmHg 47%
    10:00 +14°C° 0 mm 2 mps 729 mmHg 41%
    11:00 +16°C° 0 mm 3 mps 728 mmHg 35%
    12:00 +17°C° 0 mm 3 mps 728 mmHg 33%
    13:00 +18°C° 0 mm 2 mps 728 mmHg 31%
    14:00 +19°C° 0 mm 2 mps 727 mmHg 29%
    15:00 +17°C° 0 mm 2 mps 727 mmHg 33%
    16:00 +16°C° 0 mm 1 mps 727 mmHg 36%
    17:00 +14°C° 0 mm 1 mps 727 mmHg 40%
    18:00 +13°C° 0 mm 1 mps 727 mmHg 41%
    19:00 +13°C° 0 mm 1 mps 727 mmHg 42%
    20:00 +12°C° 0 mm 1 mps 727 mmHg 43%
    21:00 +12°C° 0 mm 1 mps 727 mmHg 43%
    22:00 +12°C° 0 mm 1 mps 727 mmHg 44%
    23:00 +11°C° 0 mm 1 mps 727 mmHg 44%

    28 October, Sunday

    Time Temperature Precipitation Wind Pressure Humidity
    00:00 +11°C° 0 mm 1 mps 727 mmHg 44%
    01:00 +11°C° 0 mm 1 mps 727 mmHg 44%
    02:00 +11°C° 0 mm 1 mps 727 mmHg 44%
    03:00 +11°C° 0 mm 1 mps 727 mmHg 43%
    04:00 +11°C° 0 mm 1 mps 727 mmHg 43%
    05:00 +10°C° 0 mm 1 mps 727 mmHg 43%
    06:00 +12°C° 0 mm 1 mps 727 mmHg 41%
    07:00 +13°C° 0 mm 1 mps 727 mmHg 38%
    08:00 +15°C° 0 mm 1 mps 728 mmHg 36%
    09:00 +17°C° 0 mm 2 mps 728 mmHg 32%
    10:00 +19°C° 0 mm 2 mps 728 mmHg 27%
    11:00 +21°C° 0 mm 2 mps 727 mmHg 23%
    12:00 +23°C° 0 mm 2 mps 727 mmHg 22%
    13:00 +23°C° 0 mm 2 mps 727 mmHg 20%
    14:00 +24°C° 0 mm 2 mps 727 mmHg 19%
    15:00 +22°C° 0 mm 1 mps 726 mmHg 22%
    16:00 +20°C° 0 mm 1 mps 726 mmHg 26%
    17:00 +18°C° 0 mm 1 mps 726 mmHg 29%
    18:00 +18°C° 0 mm 1 mps 726 mmHg 29%
    19:00 +16°C° 0 mm 1 mps 726 mmHg 30%
    20:00 +15°C° 0 mm 1 mps 726 mmHg 31%
    21:00 +15°C° 0 mm 1 mps 726 mmHg 31%
    22:00 +15°C° 0 mm 1 mps 726 mmHg 31%
    23:00 +14°C° 0 mm 1 mps 726 mmHg 31%
    Show more